User: anonymous
Location: Alberta Star Party
(51.6612°N, 112.9089°W)
Time: 22:33:48
(UTC-06:00)
Language:

AO-Echo - Orbit

View from above orbital plane
View from above orbital plane
View from above satellite
View from above satellite

Ground track
Ground track

The orbit data is extracted from the following two-line orbital elements,

1 28375U 04025K   14110.10290110  .00000415  00000-0  13573-3 0  8190
2 28375 098.2454 059.0081 0083696 167.1638 193.1709 14.41355948515540
Epoch (UTC): 20 April 2014 02:28:10
Eccentricity: 0.0083696
inclination: 98.2454°
perigee height: 694 km
apogee height: 814 km
right ascension of ascending node: 59.0081°
argument of perigee: 167.1638°
revolutions per day: 14.41355948
mean anomaly at epoch: 193.1709°
orbit number at epoch: 51554

The dashed part of the orbit path shows where the satellite is in the earth's shadow,  

DLR